Lowell Highlands, MA

10 Minute Time Series

15-Nov-2018 06:20 PM

TimeTempHumidityDewpointBarometerWindSpeedWindGustWind DirRain
15-Nov-2018 12:10 AM21.1°F56%7.9°F30.589 inHg6 mph14 mph315° (NW)0.00 in
15-Nov-2018 12:20 AM21.1°F57%8.3°F30.596 inHg4 mph9 mph338° (NNW)0.00 in
15-Nov-2018 12:30 AM21.0°F56%7.8°F30.597 inHg5 mph9 mph338° (NNW)0.00 in
15-Nov-2018 12:40 AM20.9°F56%7.7°F30.596 inHg5 mph10 mph338° (NNW)0.00 in
15-Nov-2018 12:50 AM20.8°F56%7.6°F30.595 inHg5 mph11 mph315° (NW)0.00 in
15-Nov-2018 01:00 AM20.8°F57%8.0°F30.581 inHg4 mph9 mph315° (NW)0.00 in
15-Nov-2018 01:10 AM20.7°F58%8.3°F30.604 inHg3 mph7 mph292° (WNW)0.00 in
15-Nov-2018 01:20 AM20.6°F58%8.2°F30.602 inHg3 mph8 mph292° (WNW)0.00 in
15-Nov-2018 01:30 AM20.6°F59%8.6°F30.609 inHg3 mph6 mph292° (WNW)0.00 in
15-Nov-2018 01:40 AM20.6°F59%8.6°F30.613 inHg3 mph8 mph315° (NW)0.00 in
15-Nov-2018 01:50 AM20.6°F58%8.2°F30.609 inHg3 mph8 mph338° (NNW)0.00 in
15-Nov-2018 02:00 AM20.7°F58%8.3°F30.617 inHg3 mph7 mph315° (NW)0.00 in
15-Nov-2018 02:10 AM20.6°F58%8.2°F30.608 inHg3 mph6 mph22° (NNE)0.00 in
15-Nov-2018 02:20 AM20.5°F58%8.1°F30.611 inHg2 mph6 mph315° (NW)0.00 in
15-Nov-2018 02:30 AM20.4°F58%8.0°F30.609 inHg4 mph9 mph292° (WNW)0.00 in
15-Nov-2018 02:40 AM20.4°F58%8.0°F30.608 inHg3 mph7 mph315° (NW)0.00 in
15-Nov-2018 02:50 AM20.3°F59%8.3°F30.608 inHg2 mph6 mph292° (WNW)0.00 in
15-Nov-2018 03:00 AM20.3°F59%8.3°F30.601 inHg4 mph8 mph315° (NW)0.00 in
15-Nov-2018 03:10 AM20.3°F60%8.7°F30.601 inHg3 mph6 mph292° (WNW)0.00 in
15-Nov-2018 03:20 AM20.2°F61%8.9°F30.607 inHg1 mph4 mph315° (NW)0.00 in
15-Nov-2018 03:30 AM20.1°F61%8.8°F30.609 inHg2 mph5 mph315° (NW)0.00 in
15-Nov-2018 03:40 AM20.1°F62%9.2°F30.610 inHg2 mph4 mph292° (WNW)0.00 in
15-Nov-2018 03:50 AM20.0°F62%9.1°F30.604 inHg1 mph4 mph338° (NNW)0.00 in
15-Nov-2018 04:00 AM20.0°F63%9.5°F30.615 inHg1 mph3 mph0° (N)0.00 in
15-Nov-2018 04:10 AM19.9°F64%9.7°F30.607 inHg1 mph3 mph292° (WNW)0.00 in
15-Nov-2018 04:20 AM19.9°F64%9.7°F30.603 inHg2 mph4 mph338° (NNW)0.00 in
15-Nov-2018 04:30 AM20.0°F64%9.8°F30.595 inHg3 mph5 mph338° (NNW)0.00 in
15-Nov-2018 04:40 AM20.0°F63%9.5°F30.593 inHg2 mph5 mph315° (NW)0.00 in
15-Nov-2018 04:50 AM20.0°F63%9.5°F30.610 inHg2 mph4 mph315° (NW)0.00 in
15-Nov-2018 05:00 AM20.0°F62%9.1°F30.612 inHg3 mph7 mph315° (NW)0.00 in
15-Nov-2018 05:10 AM20.2°F62%9.3°F30.619 inHg3 mph6 mph315° (NW)0.00 in
15-Nov-2018 05:20 AM20.2°F62%9.3°F30.618 inHg3 mph6 mph315° (NW)0.00 in
15-Nov-2018 05:30 AM20.2°F63%9.7°F30.612 inHg3 mph6 mph315° (NW)0.00 in
15-Nov-2018 05:40 AM20.2°F63%9.7°F30.608 inHg3 mph7 mph315° (NW)0.00 in
15-Nov-2018 05:50 AM20.2°F63%9.7°F30.598 inHg2 mph5 mph338° (NNW)0.00 in
15-Nov-2018 06:00 AM20.2°F63%9.7°F30.595 inHg1 mph4 mph22° (NNE)0.00 in
15-Nov-2018 06:10 AM20.1°F63%9.6°F30.606 inHg2 mph3 mph292° (WNW)0.00 in
15-Nov-2018 06:20 AM20.1°F63%9.6°F30.608 inHg1 mph3 mph315° (NW)0.00 in
15-Nov-2018 06:30 AM20.1°F63%9.6°F30.605 inHg2 mph5 mph315° (NW)0.00 in
15-Nov-2018 06:40 AM20.1°F62%9.2°F30.597 inHg3 mph5 mph315° (NW)0.00 in
15-Nov-2018 06:50 AM20.1°F63%9.6°F30.599 inHg1 mph4 mph315° (NW)0.00 in
15-Nov-2018 07:00 AM20.1°F63%9.6°F30.603 inHg1 mph2 mph338° (NNW)0.00 in
15-Nov-2018 07:10 AM20.2°F63%9.7°F30.605 inHg2 mph4 mph338° (NNW)0.00 in
15-Nov-2018 07:20 AM20.4°F64%10.2°F30.611 inHg2 mph4 mph338° (NNW)0.00 in
15-Nov-2018 07:30 AM20.6°F63%10.0°F30.612 inHg2 mph5 mph338° (NNW)0.00 in
15-Nov-2018 07:40 AM20.8°F63%10.2°F30.619 inHg1 mph3 mph315° (NW)0.00 in
15-Nov-2018 07:50 AM21.0°F62%10.1°F30.616 inHg1 mph4 mph315° (NW)0.00 in
15-Nov-2018 08:00 AM21.2°F62%10.2°F30.627 inHg2 mph4 mph292° (WNW)0.00 in
15-Nov-2018 08:10 AM21.3°F61%10.0°F30.627 inHg2 mph5 mph292° (WNW)0.00 in
15-Nov-2018 08:20 AM21.5°F60%9.8°F30.628 inHg3 mph6 mph0° (N)0.00 in
15-Nov-2018 08:30 AM21.8°F60%10.1°F30.626 inHg2 mph5 mph315° (NW)0.00 in
15-Nov-2018 08:40 AM22.1°F59%10.0°F30.628 inHg3 mph5 mph315° (NW)0.00 in
15-Nov-2018 08:50 AM22.6°F59%10.5°F30.628 inHg3 mph7 mph338° (NNW)0.00 in
15-Nov-2018 09:00 AM23.0°F58%10.5°F30.626 inHg2 mph4 mph0° (N)0.00 in
15-Nov-2018 09:10 AM23.1°F57%10.2°F30.611 inHg2 mph5 mph22° (NNE)0.00 in
15-Nov-2018 09:20 AM23.3°F56%10.0°F30.608 inHg2 mph4 mph22° (NNE)0.00 in
15-Nov-2018 09:30 AM23.3°F55%9.6°F30.605 inHg2 mph5 mph22° (NNE)0.00 in
15-Nov-2018 09:40 AM23.4°F55%9.6°F30.611 inHg2 mph4 mph0° (N)0.00 in
15-Nov-2018 09:50 AM23.8°F55%10.0°F30.603 inHg1 mph2 mph22° (NNE)0.00 in
15-Nov-2018 10:00 AM24.5°F54%10.3°F30.592 inHg1 mph2 mph68° (ENE)0.00 in
15-Nov-2018 10:10 AM24.9°F53%10.2°F30.587 inHg1 mph3 mph0° (N)0.00 in
15-Nov-2018 10:20 AM25.4°F52%10.3°F30.588 inHg1 mph4 mph0° (N)0.00 in
15-Nov-2018 10:30 AM25.6°F51%10.0°F30.600 inHg2 mph4 mph338° (NNW)0.00 in
15-Nov-2018 10:40 AM25.9°F51%10.3°F30.587 inHg1 mph3 mph338° (NNW)0.00 in
15-Nov-2018 10:50 AM26.3°F49%9.8°F30.590 inHg1 mph4 mph158° (SSE)0.00 in
15-Nov-2018 11:00 AM26.6°F48%9.6°F30.589 inHg1 mph3 mph158° (SSE)0.00 in
15-Nov-2018 11:10 AM27.0°F47%9.5°F30.580 inHg1 mph3 mph158° (SSE)0.00 in
15-Nov-2018 11:20 AM27.1°F47%9.6°F30.565 inHg2 mph3 mph135° (SE)0.00 in
15-Nov-2018 11:30 AM27.4°F47%9.9°F30.565 inHg1 mph3 mph112° (ESE)0.00 in
15-Nov-2018 11:40 AM27.6°F44%8.6°F30.565 inHg1 mph3 mph225° (SW)0.00 in
15-Nov-2018 11:50 AM27.8°F43%8.2°F30.560 inHg1 mph4 mph135° (SE)0.00 in
15-Nov-2018 12:00 PM28.2°F44%9.1°F30.553 inHg1 mph3 mph135° (SE)0.00 in
15-Nov-2018 12:10 PM28.6°F42%8.5°F30.546 inHg1 mph4 mph135° (SE)0.00 in
15-Nov-2018 12:20 PM29.1°F42%8.9°F30.535 inHg2 mph4 mph158° (SSE)0.00 in
15-Nov-2018 12:30 PM29.8°F40%8.5°F30.540 inHg1 mph4 mph180° (S)0.00 in
15-Nov-2018 12:40 PM29.5°F38%7.1°F30.532 inHg2 mph5 mph135° (SE)0.00 in
15-Nov-2018 12:50 PM29.5°F38%7.1°F30.536 inHg1 mph3 mph158° (SSE)0.00 in
15-Nov-2018 01:00 PM29.6°F39%7.7°F30.522 inHg1 mph5 mph180° (S)0.00 in
15-Nov-2018 01:10 PM29.7°F38%7.2°F30.525 inHg1 mph3 mph180° (S)0.00 in
15-Nov-2018 01:20 PM29.6°F38%7.1°F30.524 inHg1 mph3 mph248° (WSW)0.00 in
15-Nov-2018 01:30 PM29.8°F39%7.9°F30.516 inHg0 mph2 mph N/A (N/A)0.00 in
15-Nov-2018 01:40 PM30.0°F38%7.5°F30.514 inHg1 mph3 mph158° (SSE)0.00 in
15-Nov-2018 01:50 PM29.6°F37%6.6°F30.503 inHg1 mph3 mph90° (E)0.00 in
15-Nov-2018 02:00 PM29.7°F38%7.2°F30.498 inHg1 mph3 mph45° (NE)0.00 in
15-Nov-2018 02:10 PM29.6°F37%6.6°F30.484 inHg1 mph3 mph45° (NE)0.00 in
15-Nov-2018 02:20 PM29.4°F37%6.4°F30.481 inHg1 mph3 mph68° (ENE)0.00 in
15-Nov-2018 02:30 PM29.6°F37%6.6°F30.482 inHg1 mph3 mph68° (ENE)0.00 in
15-Nov-2018 02:40 PM29.6°F35%5.3°F30.481 inHg2 mph4 mph135° (SE)0.00 in
15-Nov-2018 02:50 PM29.7°F37%6.7°F30.482 inHg1 mph2 mph135° (SE)0.00 in
15-Nov-2018 03:00 PM29.7°F38%7.2°F30.474 inHg1 mph3 mph68° (ENE)0.00 in
15-Nov-2018 03:10 PM29.6°F38%7.1°F30.467 inHg1 mph3 mph135° (SE)0.00 in
15-Nov-2018 03:20 PM29.6°F38%7.1°F30.461 inHg1 mph2 mph158° (SSE)0.00 in
15-Nov-2018 03:30 PM29.5°F37%6.5°F30.455 inHg1 mph3 mph112° (ESE)0.00 in
15-Nov-2018 03:40 PM29.4°F37%6.4°F30.456 inHg1 mph3 mph112° (ESE)0.00 in
15-Nov-2018 03:50 PM29.4°F38%7.0°F30.457 inHg1 mph3 mph135° (SE)0.00 in
15-Nov-2018 04:00 PM29.3°F39%7.4°F30.454 inHg1 mph4 mph68° (ENE)0.00 in
15-Nov-2018 04:10 PM29.3°F40%8.0°F30.445 inHg1 mph3 mph68° (ENE)0.00 in
15-Nov-2018 04:20 PM29.3°F41%8.6°F30.433 inHg1 mph3 mph68° (ENE)0.00 in
15-Nov-2018 04:30 PM29.3°F39%7.4°F30.430 inHg0 mph2 mph N/A (N/A)0.00 in
15-Nov-2018 04:40 PM29.3°F41%8.6°F30.421 inHg1 mph3 mph68° (ENE)0.00 in
15-Nov-2018 04:50 PM29.2°F41%8.5°F30.416 inHg1 mph3 mph112° (ESE)0.00 in
15-Nov-2018 05:00 PM29.2°F42%9.0°F30.406 inHg1 mph3 mph68° (ENE)0.00 in
15-Nov-2018 05:10 PM29.3°F43%9.6°F30.405 inHg1 mph2 mph135° (SE)0.00 in
15-Nov-2018 05:20 PM29.3°F46%11.1°F30.416 inHg1 mph2 mph45° (NE)0.00 in
15-Nov-2018 05:30 PM29.3°F50%13.0°F30.413 inHg1 mph3 mph22° (NNE)0.00 in
15-Nov-2018 05:40 PM29.4°F52%14.0°F30.417 inHg1 mph5 mph90° (E)0.00 in
15-Nov-2018 05:50 PM29.4°F57%16.1°F30.415 inHg1 mph7 mph22° (NNE)0.00 in
15-Nov-2018 06:00 PM29.4°F59%16.9°F30.409 inHg1 mph3 mph90° (E)0.00 in
15-Nov-2018 06:10 PM29.5°F63%18.5°F30.403 inHg1 mph4 mph45° (NE)0.00 in
15-Nov-2018 06:20 PM29.6°F65%19.3°F30.402 inHg1 mph3 mph68° (ENE)0.00 in